Terug naar catalogus

STARLINK-34905

ActiefCommunicatieVLEO
NORAD 65202·PAYLOAD·🇺🇸 United States

Gelanceerd Aug 14, 2025 vanaf Cape Canaveral Space Force Station

Loading…

Volgende Passages (komende 24 uur)

TLE

VersSource: CelesTrak SupGP

Epoch: Sep 15, 2026, 02:32 UTC

1 65202C 25176E   26258.10604167  .00069262  00000+0  20467-2 0  2587
2 65202  53.1592 348.8176 0001143  91.0929  89.8835 15.34350597    12

Volg STARLINK-34905 in realtime met AllMySat

Download on the App Store